User: anonymous   Login
Location: Acton
(51.4942°N, 0.2232°W)
Time: 03:54:37
(UTC+00:00)
Language:

Cosmos 494 Rocket - Orbit

View from above orbital plane
View from above orbital plane
View from above satellite
View from above satellite

Ground track
Ground track

The orbit data is extracted from the following two-line orbital elements,

1 06061U 72043B   20337.32464494  .00000034  00000-0  18834-4 0  9995
2 06061  74.0573   5.2032 0019936 182.3217 177.7849 14.40601465540097
Epoch (UTC): 02 December 2020 07:47:29
Eccentricity: 0.0019936
inclination: 74.0573°
perigee height: 742 km
apogee height: 771 km
right ascension of ascending node: 5.2032°
argument of perigee: 182.3217°
revolutions per day: 14.40601465
mean anomaly at epoch: 177.7849°
orbit number at epoch: 54009

The dashed part of the orbit path shows where the satellite is in the earth's shadow,  

DLR